Simultaneous Nadir Overpasses (SNOs) Predictions

Prediction of SNOs between LANDSAT-8 and METOP-A Satellite Orbit:

Table of predicted SNOs for the next 14.0 days since TLE Epoch: 2/28/2014
Index Date (LANDSAT-8) Time (LANDSAT-8) Lat,Lon (LANDSAT-8) SZA (LANDSAT-8 ) Date (METOP-A) Time (METOP-A) Lat,Lon (METOP-A) SZA (METOP-A ) Distance(km) Time Diff (sec)
1 03/02/2014 07:01:06 81.18, 115.15 90.14 03/02/2014 07:00:20 81.18, 115.18 90.12 0.45 46
2 03/02/2014 07:50:32 -81.20, -76.91 89.84 03/02/2014 07:50:59 -81.20, -76.78 89.81 2.13 27
3 03/05/2014 02:35:17 81.18,-178.49 89.06 03/05/2014 02:34:41 81.18,-178.57 89.04 1.35 36
4 03/05/2014 03:24:43 -81.20, -10.53 90.91 03/05/2014 03:25:20 -81.20, -10.49 90.89 0.59 37
5 03/07/2014 22:09:26 81.18,-111.96 88.00 03/07/2014 22:09:00 81.18,-112.02 87.99 1.02 26
6
